Date String (YYYY-MM-DD hh:mm:ss) UTC,Instrument flags,Ambient pressure (hPa),Sample flow (lpm),Bypass flow (lpm),Sample temperature (°C),Ambient temperature (°C),ASC tube jacket temperature (°C),LED temperature (°C),Box temperature (°C),Sample RH (%),Span deviation,Mass concentration (μg/m³),Mass concentration (μg/m³),Mass concentration (μg/m³)
DateTimeUTC,F1_M11,P_M11,Q1_M11,Q2_M11,T1_M11,T2_M11,T3_M11,T4_M11,T5_M11,U1_M11,ZSPAN_M11,X0_M11,X2_M11,X1_M11
2022-01-08 18:00:00,,0818.4,5.00,0.00,23.3,22.7,00.0,32.3,25.1,15.0,0000.0,0004.90,0003.50,0003.34
2022-01-08 18:01:00,,0818.5,4.99,0.00,23.3,22.7,00.0,32.3,25.1,14.9,0000.0,0004.93,0003.52,0003.36
2022-01-08 18:02:00,,0818.5,5.01,0.00,23.3,22.7,00.0,32.3,25.0,14.7,0000.0,0004.97,0003.52,0003.36
2022-01-08 18:03:00,,0818.4,4.99,0.00,23.3,22.7,00.0,32.3,25.1,14.7,0000.0,0005.06,0003.54,0003.37
2022-01-08 18:04:00,,0818.5,5.00,0.00,23.3,22.8,00.0,32.3,25.1,14.9,0000.0,0005.10,0003.56,0003.39
2022-01-08 18:05:00,,0818.5,5.01,0.00,23.3,22.8,00.0,32.3,25.1,15.0,0000.0,0005.34,0003.61,0003.42
2022-01-08 18:06:00,,0818.5,4.99,0.00,23.3,22.8,00.0,32.3,25.1,14.8,0000.0,0005.52,0003.64,0003.45
2022-01-08 18:07:00,,0818.5,4.99,0.00,23.3,22.8,00.0,32.3,25.1,14.7,0000.0,0005.67,0003.68,0003.48
2022-01-08 18:08:00,,0818.5,5.01,0.00,23.3,22.8,00.0,32.3,25.1,14.7,0000.0,0005.83,0003.74,0003.51
2022-01-08 18:09:00,,0818.5,5.00,0.00,23.3,22.8,00.0,32.3,25.1,14.7,0000.0,0005.93,0003.78,0003.54
2022-01-08 18:10:00,,0818.5,5.00,0.00,23.3,22.8,00.0,32.3,25.1,14.7,0000.0,0005.88,0003.80,0003.56
2022-01-08 18:11:00,,0818.6,5.01,0.00,23.4,22.8,00.0,32.3,25.1,14.7,0000.0,0006.00,0003.80,0003.57
2022-01-08 18:12:00,,0818.6,5.00,0.00,23.3,22.8,00.0,32.3,25.1,14.7,0000.0,0006.45,0003.83,0003.59
2022-01-08 18:13:00,,0818.5,5.00,0.00,23.3,22.8,00.0,32.3,25.1,14.8,0000.0,0006.38,0003.86,0003.62
2022-01-08 18:14:00,,0818.5,4.99,0.00,23.3,22.7,00.0,32.3,25.0,14.7,0000.0,0006.38,0003.88,0003.64
2022-01-08 18:15:00,,0818.4,5.01,0.00,23.3,22.7,00.0,32.3,25.0,14.9,0000.0,0006.87,0003.91,0003.65
2022-01-08 18:16:00,,0818.4,5.01,0.00,23.3,22.7,00.0,32.3,25.0,14.8,0000.0,0007.13,0003.92,0003.67
2022-01-08 18:17:00,,0818.5,5.00,0.00,23.3,22.7,00.0,32.3,25.0,14.8,0000.0,0007.38,0003.93,0003.69
2022-01-08 18:18:00,,0818.5,4.99,0.00,23.3,22.7,00.0,32.3,25.0,15.0,0000.0,0007.80,0003.94,0003.72
2022-01-08 18:19:00,,0818.5,5.00,0.00,23.3,22.7,00.0,32.3,25.0,14.5,0000.0,0007.79,0003.95,0003.74
2022-01-08 18:20:00,,0818.5,5.02,0.00,23.3,22.6,00.0,32.3,25.0,14.7,0000.0,0007.84,0003.97,0003.77
2022-01-08 18:21:00,,0818.5,4.99,0.00,23.3,22.6,00.0,32.3,25.0,14.7,0000.0,0007.86,0004.00,0003.80
2022-01-08 18:22:00,,0818.6,5.00,0.00,23.3,22.6,00.0,32.3,25.0,14.7,0000.0,0007.85,0004.04,0003.84
2022-01-08 18:23:00,,0818.7,5.00,0.00,23.2,22.6,00.0,32.3,25.0,14.7,0000.0,0008.16,0004.06,0003.86
2022-01-08 18:24:00,,0818.6,5.01,0.00,23.2,22.6,00.0,32.3,25.0,14.7,0000.0,0008.96,0004.08,0003.87
2022-01-08 18:25:00,,0818.6,4.99,0.00,23.2,22.5,00.0,32.3,24.9,14.7,0000.0,0008.95,0004.08,0003.89
2022-01-08 18:26:00,,0818.6,5.00,0.00,23.2,22.5,00.0,32.3,24.9,14.7,0000.0,0008.83,0004.06,0003.89
2022-01-08 18:27:00,,0818.6,5.00,0.00,23.2,22.5,00.0,32.3,24.9,14.9,0000.0,0008.48,0004.07,0003.91
2022-01-08 18:28:00,,0818.5,5.00,0.00,23.2,22.5,00.0,32.3,24.9,14.8,0000.0,0008.35,0004.07,0003.91
2022-01-08 18:29:00,,0818.4,5.02,0.00,23.2,22.5,00.0,32.3,24.9,14.8,0000.0,0007.92,0004.09,0003.92
2022-01-08 18:30:00,,0818.4,4.99,0.00,23.1,22.5,00.0,32.3,24.8,14.8,0000.0,0007.79,0004.08,0003.91
2022-01-08 18:31:00,,0818.4,4.99,0.00,23.1,22.5,00.0,32.2,24.8,14.9,0000.0,0007.72,0004.06,0003.90
2022-01-08 18:32:00,,0818.4,5.00,0.00,23.1,22.5,00.0,32.2,24.9,14.9,0000.0,0007.71,0004.05,0003.89
2022-01-08 18:33:00,,0818.4,5.02,0.00,23.1,22.5,00.0,32.2,24.9,15.0,0000.0,0007.65,0004.01,0003.86
2022-01-08 18:34:00,,0818.5,4.99,0.00,23.1,22.5,00.0,32.2,24.8,15.2,0000.0,0007.32,0004.07,0003.91
2022-01-08 18:35:00,,0818.6,4.99,0.00,23.1,22.5,00.0,32.2,24.9,15.0,0000.0,0005.96,0004.15,0003.98
2022-01-08 18:36:00,,0818.6,5.00,0.00,23.1,22.4,00.0,32.2,24.8,15.1,0000.0,0006.10,0004.20,0004.00
2022-01-08 18:37:00,,0818.6,5.00,0.00,23.1,22.4,00.0,32.2,24.8,15.1,0000.0,0006.11,0004.20,0004.01
2022-01-08 18:38:00,,0818.6,5.01,0.00,23.0,22.4,00.0,32.2,24.8,15.2,0000.7,0006.20,0004.21,0004.01
2022-01-08 18:39:00,,0818.7,5.00,0.00,23.0,22.4,00.0,32.2,24.8,15.3,0000.0,0006.73,0004.21,0004.02
2022-01-08 18:40:00,,0818.6,5.00,0.00,23.0,22.3,00.0,32.1,24.7,15.3,0000.0,0006.68,0004.20,0004.02
2022-01-08 18:41:00,,0818.7,5.01,0.00,23.0,22.3,00.0,32.1,24.7,15.1,0000.0,0006.80,0004.22,0004.01
2022-01-08 18:42:00,,0818.7,5.01,0.00,23.0,22.4,00.0,32.1,24.7,15.1,0002.7,0007.50,0004.21,0004.01
2022-01-08 18:43:00,,0818.6,5.00,0.00,23.0,22.3,00.0,32.1,24.8,15.2,0003.3,0007.51,0004.21,0004.01
2022-01-08 18:44:00,,0818.6,5.00,0.00,23.0,22.4,00.0,32.1,24.8,15.2,0003.5,0007.58,0004.23,0004.02
2022-01-08 18:45:00,,0818.6,5.00,0.00,23.0,22.3,00.0,32.1,24.7,15.1,0002.9,0007.46,0004.15,0003.95
2022-01-08 18:46:00,,0818.6,5.01,0.00,22.9,22.3,00.0,32.1,24.7,15.2,0000.0,0007.31,0004.07,0003.88
2022-01-08 18:47:00,,0818.6,4.99,0.00,22.9,22.3,00.0,32.1,24.6,15.2,0000.0,0007.17,0004.02,0003.85
2022-01-08 18:48:00,,0818.6,4.99,0.00,22.9,22.2,00.0,32.1,24.6,15.3,0000.0,0007.32,0004.04,0003.84
2022-01-08 18:49:00,,0818.6,5.01,0.00,22.9,22.2,00.0,32.0,24.6,15.2,0000.0,0007.46,0004.02,0003.82
2022-01-08 18:50:00,,0818.6,4.99,0.00,22.9,22.2,00.0,32.0,24.5,15.3,0000.0,0007.97,0003.99,0003.80
2022-01-08 18:51:00,,0818.6,5.00,0.00,22.8,22.1,00.0,32.0,24.5,15.4,0000.0,0007.98,0003.99,0003.80
2022-01-08 18:52:00,,0818.6,5.01,0.00,22.8,22.1,00.0,32.0,24.5,15.4,0000.0,0007.89,0003.96,0003.78
2022-01-08 18:53:00,,0818.6,5.00,0.00,22.8,22.1,00.0,32.0,24.5,15.4,0000.0,0007.45,0003.95,0003.76
2022-01-08 18:54:00,,0818.6,5.00,0.00,22.8,22.1,00.0,32.0,24.5,15.4,0000.0,0007.47,0003.96,0003.76
2022-01-08 18:55:00,,0818.6,4.99,0.00,22.8,22.1,00.0,32.0,24.4,15.4,0000.0,0007.40,0003.93,0003.75
2022-01-08 18:56:00,,0818.6,5.01,0.00,22.7,22.1,00.0,31.9,24.4,15.5,0000.0,0007.36,0003.91,0003.73
2022-01-08 18:57:00,,0818.6,5.01,0.00,22.7,22.1,00.0,31.9,24.5,15.4,0000.0,0007.34,0003.87,0003.70
2022-01-08 18:58:00,,0818.5,5.00,0.00,22.7,22.1,00.0,31.9,24.4,15.5,0000.0,0007.39,0003.85,0003.68
2022-01-08 18:59:00,,0818.5,5.00,0.00,22.7,22.1,00.0,31.9,24.5,15.5,0000.0,0007.29,0003.81,0003.65
